Hourly Data Report for April 16, 2020

CLYDE RIVER A
NUNAVUT
Current Station Operator: NAVCAN

70°29'09.000" N
68°31'01.000" W
26.50 m
2400804
71090
YCY

Download Data

Hourly Data (April 2020)
Hourly Data Report for April 16, 2020
TIME
LST
Temp Definition
°C
Dew Point Definition
°C
Rel Hum Definition
%
Precip. Amount Definition
mm

Wind Dir Definition
10's deg

Wind Spd Definition
km/h
Visibility Definition
km
Stn Press Definition
kPa
Hmdx Definition


Wind Chill Definition


Weather Definition


00:00 -15.1 -16.5 89 0.0 32 32 4.0 99.23   -26 Snow
01:00 -14.9 -16.3 89 0.0 31 30 3.2 99.16   -26 Snow
02:00 -14.9 -16.3 89 0.0 31 30 3.2 99.08   -26 Snow
03:00 -15.0 -16.6 88 0.0 32 28 4.8 99.00   -26 Snow
04:00 -15.1 -16.5 89 0.0 32 28 3.6 98.93   -26 Snow
05:00 -15.0 -16.4 89 0.0 31 30 1.6 98.86   -26 Snow
06:00 -14.7 -16.1 89 0.0 32 34 1.6 98.78   -26 Snow
07:00 -14.4 -16.1 87 0.0 32 34 2.4 98.71   -26 Snow
08:00 -14.1 -16.0 86 0.0 31 34 4.8 98.65   -25 Snow
09:00 -13.9 -15.8 86 0.0 31 34 6.4 98.60   -25 Snow
10:00 -13.5 -15.2 87 0.0 31 35 2.0 98.52   -25 Snow
11:00 -13.0 -15.0 85 0.0 31 34 4.8 98.45   -24 Snow
12:00 -13.2 -15.2 85 0.0 32 34 4.8 98.43   -24 Snow
13:00 -13.0 -15.1 85 0.0 33 35 6.4 98.40   -24 Snow
14:00 -13.2 -15.2 85 0.0 32 35 4.8 98.36   -24 Snow
15:00 -13.2 -15.2 85 0.0 32 32 4.8 98.38   -24 Snow
16:00 -13.4 -15.4 85 0.0 32 26 11.3 98.38   -23 LegendNANA
17:00 -13.9 -15.8 86 0.0 32 28 16.1 98.37   -24 Snow
18:00 -15.1 -16.9 86 0.0 32 24 16.1 98.38   -25 Snow
19:00 -16.5 -18.3 86 0.0 31 24 16.1 98.38   -27 LegendNANA
20:00 -17.0 -18.9 86 0.0 29 24 6.4 98.38   -28 Snow
21:00 -17.6 -19.6 85 0.0 30 24 16.1 98.35   -28 Snow
22:00 -18.3 -20.2 85 0.0 29 22 16.1 98.32   -29 Snow
23:00 -18.7 -20.5 86 0.0 29 18 16.1 98.29   -28 Snow

Notes on Data Quality.

Legend

  • E = Estimated
  • M = Missing
  • NA = Not Available*
  • [empty] = Indicates an unobserved value
Date modified: